DECAYED

STARLINK-2014, 47637 (Decayed)

Orbit data source: Space-Track

STARLINK-2014, 47637 was a payload satellite owned by SpaceX/Seattle (US) in LEO that was launched on Tue, 16 Feb 2021 UTC via an FALCON 9 launch vehicle from the Air Force Eastern Test Range (AFETR). Payload-class satellites include a variety of spacecraft equipped with specific instruments for various scientific and technological missions. These include communications satellites like Starlink; space stations such as the ISS; scientific satellites like the Hubble; Earth observation satellites from companies like Planet Labs, Umbra, and HawkEye 360; GPS; miniature CubeSats for education and research; and military/defense satellites.

Not visible in the next 10 days
Identifier
47637, 2021-012T
Orbit
Decayed
Country
Flag of USUS
Related business
Manufacturer
SpaceX/Seattle
Mission
Decayed Commercial Communications
Bus & Motor
STARLINK, Unknown motor
Mass
260 kg wet, ~248 kg dry
Launch date (UTC)
2021-02-16 (5 years ago)
Launch vehicle
FALCON 9
Launch site
Air Force Eastern Test Range (AFETR)
Object type
Payload
Rocket body
Debris
Shape & HBR
Box + 1 Pan, 10.1 m
Radar Cross Section
13.562 m², Large (>1 m²)

Expand to show TLE details & history
Last TLE update: 10 months ago

TLE from 10 months ago
0 STARLINK-2014
1 47637U 21012T   25040.95499046  .30434364  12616-4  32108-3 0  9994
2 47637  53.0175 334.8220 0004891 242.8623 163.6023 16.50369599220942
Epoch: 2025-02-09T22:55Z
TLE epoch observation values (Epoch: 2025-02-09T22:55:11.175Z)
Latitude
35.51878°
Longitude
-116.95024°
Altitude
144.074 km
Speed
7.823 km/s
True Right ascension
00h 28m 30s
True Declination
35° 20' 28"
Sunlit
Object was in daylight at epoch
Visualization orbit readout
Latitude
Unknown
Longitude
Unknown
Altitude
Unknown
Speed
Unknown
Apparent Right ascension
Unknown
Apparent Declination
Unknown
Sunlit
N/A
Visualization observer readout
Local Sidereal Time
03:23:54
Azimuth
Unknown
Elevation
Unknown
Doppler factor
Unknown
Orbital elements
Apogee altitude
141.843 km
Perigee altitude
135.469 km
Semi-major axis
6,516.793 km
Eccentricity
0.00049
Inclination
53.0175°
RAAN
334.822°
Arg. of periapsis
242.8623°
True anomaly
163.61811°
Mean anomaly
163.6023°
Eccentric anomaly
163.61021°
Mean motion
4.12565 °/min
Orbital period
87.26 mins
BSTAR
0.00032108
Loading maneuver chart data...
Computing Atmospheric mass density...

Documentation

Showing up to 5 results
|